Wind_Speed
23 24 25 26 27 28 28 29 29 30 31 31 32 32 32 33 33 33 34 34 35 36 36 37 37 39 39 40 40 41 42 42 42 42 43 44 44 43 43 44 44 44 44
23 25 26 27 28 29 30 31 32 33 33 33 33 33 34 34 34 34 35 35 35 35 36 37 37 39 40 41 42 43 43 44 44 44 44 45 46 46 45 44 45 45 44
25 26 27 28 30 31 32 34 34 35 35 35 35 35 35 35 35 36 36 36 36 36 36 37 38 39 40 41 42 44 45 45 46 46 46 47 47 47 46 45 46 46 46
27 28 29 31 32 34 35 36 36 37 37 37 37 37 37 37 36 36 36 36 37 37 37 38 39 40 41 42 43 44 45 46 47 47 47 48 48 48 48 46 46 47 47
29 30 32 33 35 36 37 38 39 39 39 39 39 38 38 38 37 37 37 37 37 37 38 38 39 41 42 43 45 45 46 47 47 48 48 49 49 49 49 48 47 48 48
30 32 34 36 37 38 39 40 41 41 41 40 40 39 39 39 38 38 37 36 36 36 37 38 39 41 42 43 45 45 46 46 47 48 49 50 50 50 50 49 48 48 49
33 34 36 38 39 40 41 42 42 42 41 41 40 40 40 39 38 37 37 36 36 37 37 38 39 40 40 41 43 44 45 46 47 48 49 50 50 52 50 51 50 50 49
35 37 39 40 41 42 43 44 43 43 42 41 41 40 39 38 38 37 36 36 36 36 37 37 38 38 38 39 40 42 44 45 46 48 49 50 51 52 51 51 51 51 51
37 39 40 42 43 44 44 45 44 43 43 42 41 39 38 37 37 36 35 35 35 35 35 36 36 36 36 37 38 39 41 44 46 47 49 50 52 52 52 51 51 52 53
39 41 42 44 44 45 45 45 45 43 43 42 40 39 37 36 36 35 34 34 33 33 34 34 34 35 35 35 36 37 39 41 44 46 48 50 52 52 53 53 52 52 53
41 43 44 45 46 47 46 46 45 43 42 41 39 37 36 35 34 33 33 33 32 32 32 32 33 33 33 34 35 36 37 40 42 45 47 50 52 52 53 54 53 53 53
43 44 45 46 47 48 48 46 44 43 41 39 38 37 36 35 34 33 32 32 32 31 30 30 30 30 30 31 32 34 36 39 41 44 46 48 50 52 53 54 54 53 52
44 45 47 48 48 49 48 47 44 42 40 39 37 36 36 35 33 32 32 32 31 30 29 28 28 27 28 28 30 31 33 36 39 41 44 47 48 50 52 54 54 55 53
46 47 48 49 49 49 48 46 44 41 40 38 37 35 35 33 32 31 31 31 30 29 28 27 26 26 26 27 27 28 30 32 35 39 41 44 47 49 51 53 54 54 55
49 49 49 50 49 48 47 45 43 41 39 37 36 35 33 31 31 30 30 30 29 27 26 25 24 23 23 23 24 25 26 29 32 35 38 41 44 46 49 52 52 53 54
49 50 50 50 49 48 46 44 42 41 38 37 35 34 32 30 29 29 29 28 27 26 24 23 21 21 21 21 22 23 25 26 29 32 35 38 40 43 46 49 51 52 53
50 51 51 50 48 47 45 43 41 39 37 35 35 33 31 30 29 29 28 27 25 24 22 20 19 18 19 18 19 20 22 24 26 30 32 34 37 40 43 45 48 49 51
51 51 50 49 47 46 44 41 39 36 35 34 33 32 30 29 28 27 26 25 23 21 20 18 17 16 15 15 16 17 18 21 23 26 28 30 33 36 39 42 43 45 47
51 50 49 48 46 44 41 39 37 35 34 32 32 31 29 28 26 25 24 23 21 19 18 16 14 12 11 11 12 14 16 18 20 23 26 28 30 33 35 38 40 42 43
50 49 48 46 44 41 39 37 35 33 32 31 30 29 27 26 24 23 23 22 20 18 16 14 12 10 9 9 10 12 15 17 19 22 23 26 28 30 33 35 38 40 41
50 48 47 44 41 39 37 35 33 31 31 29 28 27 25 24 23 22 22 21 19 16 14 12 9 8 6 6 7 10 13 16 18 21 23 25 27 28 31 34 36 38 41
49 47 45 42 39 36 34 32 30 29 28 27 26 25 24 23 22 21 21 20 18 15 12 10 8 7 4 4 6 9 12 14 16 19 22 24 25 26 29 32 35 38 40
47 45 42 39 36 33 31 30 28 27 25 24 23 22 21 20 20 19 19 17 16 13 11 9 7 5 3 4 6 9 12 14 15 17 20 22 24 25 27 29 32 34 37
44 41 38 36 33 30 28 27 26 24 23 21 20 18 18 18 19 19 17 16 16 13 9 7 6 4 3 5 6 8 11 12 15 17 19 20 22 24 27 29 30 32 35
41 38 35 32 29 27 25 24 23 22 20 19 17 17 17 17 17 17 16 15 14 12 8 6 4 3 3 5 6 8 9 11 14 16 18 19 21 23 24 27 29 31 32
37 34 31 28 26 24 23 21 20 19 18 17 16 15 15 15 15 15 15 14 12 10 8 6 4 3 3 5 6 8 9 11 13 15 16 19 21 22 23 25 27 29 30
Wind_Direction
318 319 319 319 319 318 317 316 314 312 309 307 304 302 298 294 291 288 286 284 281 277 274 271 268 266 262 259 257 254 251 247 244 242 241 239 237 235 233 231 230 229 229
320 320 321 321 321 320 319 318 316 314 311 308 306 303 300 296 292 289 287 285 282 278 275 271 268 266 263 260 257 254 251 248 245 242 240 239 237 236 234 233 231 231 229
324 324 324 324 323 322 321 320 319 316 313 310 307 304 301 297 293 291 288 285 282 278 275 272 269 266 263 260 257 254 251 248 245 242 239 238 236 236 234 233 231 230 227
325 325 325 325 324 323 322 322 320 318 314 311 308 305 302 298 295 292 289 286 283 279 276 273 270 267 264 260 257 254 251 248 244 242 239 237 235 234 234 232 230 229 226
326 326 325 325 324 323 323 322 320 318 316 312 309 306 303 299 295 292 291 288 284 280 278 275 271 268 265 261 257 254 250 247 244 241 238 235 234 232 233 233 231 229 226
325 325 325 325 325 324 323 322 321 319 316 313 310 307 304 301 297 294 292 289 286 282 280 278 275 271 267 262 257 253 250 246 243 240 238 235 233 230 230 230 230 229 227
325 325 326 326 325 325 324 323 322 320 317 315 312 309 306 303 300 297 294 291 288 284 282 280 277 273 268 262 257 252 249 245 242 240 237 234 233 230 228 228 228 228 226
324 326 327 327 326 325 324 323 322 321 318 316 314 311 308 305 301 299 296 293 290 288 285 282 278 275 269 262 256 251 247 244 241 239 236 233 231 230 229 227 227 226 224
324 326 327 326 326 325 324 323 322 320 319 316 314 312 310 308 305 301 298 296 292 290 287 284 280 275 269 263 257 251 246 243 240 237 234 232 230 229 228 226 225 225 224
325 326 326 326 326 326 325 324 322 320 319 317 315 314 312 310 307 304 301 299 296 293 289 286 281 274 269 263 256 251 246 242 240 237 234 231 229 229 228 227 226 225 224
324 325 326 326 326 326 325 324 323 320 319 318 316 315 314 312 309 307 304 301 299 295 292 289 283 276 269 262 255 250 246 243 240 236 233 230 229 228 227 226 225 224 224
323 325 325 326 326 326 326 325 323 321 320 319 318 316 315 314 311 309 307 304 302 298 294 291 285 277 269 262 256 251 247 242 238 235 232 230 228 228 227 225 224 223 223
323 324 325 325 326 326 325 325 323 321 320 320 319 318 317 315 313 311 309 307 305 301 296 291 286 279 271 264 257 252 248 242 237 234 232 230 228 227 226 224 224 223 222
321 322 323 324 325 325 325 324 323 322 322 321 320 319 319 318 316 313 312 311 309 305 299 293 287 279 272 265 259 253 247 241 235 232 231 229 227 226 224 224 223 222 221
320 321 322 323 324 325 324 323 322 322 322 322 322 321 321 320 318 317 316 314 312 308 302 296 289 282 275 266 257 250 245 240 235 231 229 227 225 223 222 222 221 220 219
319 320 321 322 323 323 323 323 322 322 322 323 322 323 323 322 321 320 319 316 314 312 308 301 292 284 276 267 257 250 243 237 232 228 226 224 223 220 219 219 219 219 218
317 318 320 321 321 322 322 322 322 322 322 323 323 324 323 323 322 322 322 320 317 315 312 306 297 288 278 266 255 247 239 233 228 223 221 220 219 217 215 216 218 218 216
315 317 318 318 319 319 320 321 321 321 321 322 323 324 324 324 323 324 325 323 320 318 317 313 304 293 279 265 251 242 234 228 223 218 216 216 215 214 213 214 215 217 216
314 315 315 316 316 317 318 319 320 320 321 321 322 324 324 325 325 326 328 327 325 323 321 319 311 297 280 264 247 235 227 221 216 212 210 211 211 210 210 211 212 213 213
311 312 312 313 314 315 316 317 318 318 319 320 321 323 325 327 327 327 329 329 327 325 324 323 318 307 288 264 244 232 220 213 209 207 206 206 207 208 208 208 209 210 210
309 309 310 310 311 312 312 314 315 316 318 319 320 322 324 325 326 327 328 329 328 326 325 323 323 318 298 257 230 220 210 205 204 203 204 204 205 206 205 205 207 208 208
306 306 307 307 307 308 309 311 313 315 317 318 319 321 323 325 327 328 328 329 328 326 324 320 318 321 299 229 210 202 199 197 196 198 199 201 202 203 204 204 206 206 205
303 303 303 303 303 304 305 308 310 312 314 317 318 320 323 326 328 330 330 331 332 327 322 317 311 307 275 218 203 199 197 197 197 198 199 201 201 201 200 200 201 202 204
299 298 298 299 299 299 301 303 306 308 310 313 315 318 322 325 327 330 332 333 335 334 326 315 308 290 243 212 203 199 197 197 196 196 196 198 199 200 200 199 200 200 202
295 294 294 294 294 294 296 300 302 304 306 308 311 314 319 322 326 331 332 335 338 338 336 328 313 286 233 211 205 201 199 198 196 194 194 194 195 196 196 197 198 199 202
290 289 289 288 287 288 291 295 296 299 301 303 307 310 315 320 325 329 332 335 339 341 335 326 309 277 229 204 200 198 195 193 191 191 191 191 192 192 194 195 197 198 200
Height
5816 5812 5808 5804 5799 5794 5790 5785 5780 5775 5771 5766 5762 5758 5754 5751 5748 5745 5742 5740 5738 5737 5736 5736 5736 5736 5736 5737 5739 5741 5744 5747 5750 5754 5757 5761 5765 5769 5774 5779 5784 5789 5794
5811 5807 5802 5798 5793 5788 5783 5778 5773 5767 5762 5758 5753 5749 5745 5741 5737 5734 5732 5729 5727 5726 5724 5724 5724 5723 5724 5725 5727 5729 5731 5735 5738 5742 5746 5750 5755 5759 5764 5769 5774 5780 5785
5806 5801 5796 5791 5786 5781 5776 5770 5765 5759 5754 5748 5744 5739 5734 5730 5727 5723 5720 5717 5715 5713 5712 5711 5711 5711 5711 5712 5713 5716 5718 5722 5725 5730 5734 5738 5743 5748 5753 5759 5764 5770 5775
5800 5795 5790 5785 5779 5774 5768 5762 5756 5750 5745 5739 5734 5729 5724 5719 5715 5712 5708 5705 5703 5701 5699 5698 5698 5698 5698 5699 5700 5702 5705 5708 5712 5716 5722 5726 5732 5737 5742 5748 5754 5759 5765
5794 5789 5784 5778 5772 5766 5760 5754 5748 5741 5735 5729 5723 5718 5712 5708 5704 5700 5696 5693 5690 5688 5686 5685 5684 5683 5684 5684 5686 5688 5691 5694 5698 5703 5708 5714 5719 5725 5731 5736 5743 5749 5755
5788 5783 5777 5771 5765 5759 5752 5745 5739 5732 5725 5719 5713 5707 5701 5696 5692 5688 5684 5681 5678 5675 5673 5671 5669 5669 5669 5669 5670 5673 5676 5680 5684 5689 5695 5701 5707 5713 5719 5725 5731 5738 5745
5781 5776 5770 5763 5757 5750 5743 5736 5729 5722 5715 5709 5702 5696 5690 5685 5680 5676 5671 5668 5665 5662 5659 5657 5655 5654 5654 5654 5655 5657 5661 5665 5670 5675 5681 5687 5694 5701 5707 5714 5720 5726 5734
5775 5769 5762 5756 5749 5742 5734 5727 5720 5712 5705 5698 5691 5685 5679 5673 5668 5664 5659 5656 5652 5649 5646 5643 5641 5639 5639 5639 5640 5643 5647 5651 5656 5661 5668 5674 5680 5687 5694 5701 5707 5715 5722
5767 5761 5754 5747 5740 5733 5725 5718 5710 5703 5695 5688 5681 5675 5668 5663 5657 5652 5648 5644 5640 5636 5633 5630 5628 5626 5625 5625 5626 5629 5632 5636 5641 5647 5653 5660 5666 5674 5681 5688 5696 5703 5711
5760 5753 5746 5739 5732 5724 5716 5708 5700 5693 5685 5678 5671 5664 5658 5652 5647 5642 5637 5632 5628 5624 5621 5618 5615 5613 5612 5612 5613 5616 5619 5623 5627 5633 5639 5646 5653 5661 5668 5676 5683 5691 5699
5751 5745 5738 5730 5723 5715 5707 5699 5691 5683 5676 5668 5661 5655 5649 5643 5637 5631 5626 5622 5617 5613 5609 5606 5602 5600 5599 5599 5601 5603 5606 5609 5614 5619 5626 5633 5640 5648 5655 5663 5672 5679 5688
5743 5736 5729 5721 5713 5705 5697 5689 5681 5674 5666 5659 5652 5646 5639 5633 5627 5621 5616 5612 5607 5602 5598 5594 5591 5589 5588 5588 5589 5591 5593 5596 5601 5606 5613 5620 5627 5635 5643 5652 5660 5668 5676
5734 5727 5719 5712 5704 5696 5687 5680 5672 5664 5657 5650 5643 5637 5630 5624 5618 5612 5607 5602 5597 5592 5588 5584 5581 5579 5577 5577 5578 5579 5581 5584 5589 5594 5601 5608 5615 5623 5631 5639 5647 5655 5664
5724 5717 5710 5702 5694 5686 5678 5670 5663 5655 5648 5641 5635 5628 5622 5615 5609 5603 5598 5593 5587 5583 5578 5575 5572 5569 5568 5567 5567 5568 5570 5573 5578 5583 5589 5595 5603 5610 5618 5627 5635 5644 5652
5715 5708 5700 5692 5684 5677 5669 5661 5654 5647 5640 5633 5627 5620 5614 5608 5601 5595 5590 5584 5579 5574 5569 5566 5563 5560 5559 5558 5559 5560 5562 5564 5568 5573 5579 5585 5591 5599 5607 5615 5624 5632 5641
5705 5698 5690 5682 5675 5667 5660 5653 5645 5639 5632 5625 5619 5613 5606 5600 5594 5588 5583 5577 5572 5566 5562 5558 5555 5552 5551 5550 5551 5552 5554 5556 5560 5564 5569 5575 5582 5589 5597 5605 5613 5622 5631
5695 5687 5680 5672 5665 5658 5651 5644 5638 5631 5624 5618 5612 5605 5599 5593 5588 5582 5576 5570 5565 5560 5555 5551 5548 5546 5544 5543 5543 5545 5546 5549 5552 5557 5562 5567 5573 5581 5588 5596 5604 5613 5622
5684 5677 5670 5663 5656 5649 5642 5636 5629 5623 5617 5611 5605 5599 5593 5587 5581 5576 5570 5564 5559 5554 5550 5546 5543 5540 5538 5537 5538 5539 5541 5543 5547 5551 5556 5561 5567 5574 5581 5589 5597 5605 5614
5673 5666 5660 5653 5646 5640 5634 5628 5622 5616 5610 5604 5599 5593 5587 5581 5576 5570 5565 5560 5555 5550 5546 5542 5539 5536 5534 5534 5534 5535 5537 5539 5543 5546 5551 5556 5562 5568 5575 5583 5590 5598 5607
5662 5656 5649 5643 5637 5631 5626 5620 5615 5609 5604 5598 5593 5587 5582 5576 5571 5566 5561 5556 5552 5547 5543 5540 5536 5534 5532 5531 5531 5532 5533 5536 5539 5543 5548 5553 5558 5564 5570 5578 5585 5593 5601
5650 5644 5639 5633 5628 5623 5618 5613 5608 5603 5598 5592 5588 5582 5577 5572 5567 5562 5557 5553 5548 5544 5541 5537 5535 5532 5530 5528 5529 5529 5531 5534 5537 5541 5545 5550 5555 5560 5566 5573 5580 5587 5594
5638 5633 5628 5623 5618 5614 5610 5605 5601 5596 5592 5587 5582 5578 5573 5568 5563 5559 5554 5550 5545 5541 5538 5536 5533 5531 5529 5528 5528 5529 5530 5533 5536 5539 5543 5547 5552 5557 5562 5568 5575 5582 5589
5625 5621 5617 5613 5609 5605 5601 5598 5594 5590 5586 5582 5577 5573 5569 5565 5560 5556 5551 5547 5543 5539 5536 5534 5532 5530 5529 5528 5528 5529 5530 5532 5535 5538 5541 5545 5550 5554 5559 5565 5571 5578 5585
5613 5609 5606 5602 5599 5597 5594 5590 5587 5584 5581 5577 5573 5570 5566 5562 5558 5553 5549 5544 5540 5537 5534 5532 5531 5529 5528 5528 5528 5529 5530 5532 5534 5537 5540 5544 5548 5552 5557 5562 5568 5574 5581
5600 5597 5595 5592 5590 5588 5586 5583 5581 5578 5575 5572 5569 5566 5563 5559 5555 5551 5547 5543 5539 5536 5533 5531 5529 5528 5527 5527 5527 5528 5529 5531 5533 5536 5539 5542 5546 5550 5555 5560 5565 5571 5577
5588 5586 5584 5583 5581 5580 5578 5576 5574 5572 5570 5567 5565 5562 5559 5556 5552 5549 5545 5541 5538 5535 5532 5530 5529 5528 5527 5526 5527 5528 5529 5530 5533 5535 5538 5541 5545 5549 5553 5558 5563 5568 5574